Starlink 11718

operational
NORAD ID: 64132 Int'l Des: 2025-111 Owner: SPXS Country: US Constellation: starlink
LEOCIRCULAR

About Starlink 11718

Description loading...

Live Position

Loading 3D Globe...

Upcoming Passes

Altitude History

Altitude vs Time

uPlot chart will show altitude changes over time

Two-Line Element Set

1 64132U 25111K 25306.51233366 .00232091 00000-0 17517-2 0 9991
2 64132 43.0007 20.7659 0001519 244.2775 115.7936 15.70982632 26685
Epoch: Nov 2, 2025 • Age: 32 hours

Current Status

Altitude 360.9 km
Velocity 7.69 km/s
Sub-Earth Point -27.25°S, 6.21°W
Launch Date May 24, 2025
Age 0.4 years
Type internet

Technical Details

Classification Payload
Mass 960.00 kg
Dry Mass 910.00 kg
Total Mass 960.00 kg
Length 0.30 m
Diameter 4.10 m
Span 29.00 m
Shape Box + pan
Manufacturer SPXS
Bus Type Starlink V2MD
Phase Status In Orbit
Owner/State SPXS/US

Large Constellations

Loading constellations...